Location: Adobe Park
(37.6608°N, 121.9125°W)
Time: 06:48:28
(UTC+00:00)

Daily predictions for brighter satellites

Satellite Brightness Start Highest point End
(mag) Time Altitude Azimuth Time Altitude Azimuth Time Altitude Azimuth
ADEOS II 4.0 12:02:41 10° NNW 12:05:07 13° WNW 12:07:01 11° W
SL-16 R/B 3.9 12:04:58 10° WNW 12:07:18 14° W 12:07:18 14° W
SL-08 R/B 4.4 12:03:17 10° N 12:09:30 79° W 12:15:45 10° S
H-2A R/B 2.0 12:05:37 10° S 12:09:39 52° W 12:13:40 10° NNW
Cosmos 1125 Rocket 3.5 12:05:02 13° SSW 12:09:47 84° WNW 12:15:04 10° NNE
FALCON 9 DEB 3.0 12:07:49 10° NW 12:11:17 78° SW 12:14:43 10° SE
Cosmos 724 4.5 12:09:30 10° NW 12:15:21 52° WSW 12:21:16 10° S
USA 267 3.3 12:09:01 10° SE 12:15:34 89° SW 12:22:08 10° NW
Cosmos 1825 Rocket 3.4 12:15:30 10° NNW 12:19:49 71° W 12:24:05 10° S
Cosmos 2263 Rocket 3.4 12:18:12 14° WSW 12:21:49 27° WNW 12:26:29 10° N
Aureole 3 4.2 12:17:12 10° SSW 12:22:04 67° W 12:28:19 10° N
Cosmos 1484 Rocket 4.5 12:19:29 10° NNE 12:22:51 32° E 12:26:13 10° SSE
Atlas Centaur 2 3.8 12:19:08 13° SW 12:25:19 38° SSE 12:32:54 10° E
Cosmos 1953 Rocket 3.6 12:22:18 10° N 12:26:49 88° E 12:31:17 10° S
Delta 2 Rocket 3.4 12:25:29 15° WSW 12:28:24 54° S 12:32:26 10° E
Hubble Space Telescope 3.3 12:32:49 10° SSE 12:33:27 10° SSE 12:34:05 10° SSE
CZ-4B R/B 1.3 12:33:51 10° SSE 12:37:09 90° E 12:40:24 10° NNW
Cosmos 2315 Rocket 4.3 12:31:53 10° S 12:38:08 75° E 12:44:29 10° N
SeaSat 1 3.3 12:34:05 10° N 12:38:33 35° WNW 12:43:01 10° WSW
ERS-2 3.2 12:36:30 10° SSW 12:39:33 25° W 12:42:36 10° NW
Cosmos 1606 Rocket 4.4 12:39:04 10° SW 12:43:05 32° WNW 12:47:07 10° NNW
Cosmos 1844 Rocket 2.7 12:41:56 10° SSW 12:47:31 79° WNW 12:53:07 10° NNE
Cosmos 2084 4.4 12:46:41 10° WSW 12:50:41 35° NW 12:54:46 10° NNE
